{"data":{"norad_id":67020,"epoch":"2026-05-25T00:50:35.611296Z","epoch_age_seconds":75215,"freshness":"FRESH","line1":"1 67020U 25293T   26145.03513439 -.00003259  00000+0 -26551-3 0  9994","line2":"2 67020  70.0007 261.9576 0002797 273.7558  86.3281 14.98325709 26317","mean_motion":14.98325709,"eccentricity":0.0002797,"inclination_deg":70.0007,"raan_deg":261.9576,"arg_perigee_deg":273.7558,"mean_anomaly_deg":86.3281,"bstar":-0.00026551,"rev_number":2631,"period_min":96.107274363,"perigee_km":570.12518787652,"apogee_km":574.01313320272,"semimajor_km":6950.2061605396,"source":"CELESTRAK","updated_at":"2026-05-25T13:38:21.433199Z"}}